Simultaneous Nadir Overpasses (SNOs) Predictions

Prediction of SNOs between FY3D and NOAA-19 Satellite Orbit:

Table of predicted SNOs for the next 14.0 days since TLE Epoch: 4/20/2019
Index Date (FY3D) Time (FY3D) Lat,Lon (FY3D) SZA (FY3D ) Date (NOAA-19) Time (NOAA-19) Lat,Lon (NOAA-19) SZA (NOAA-19 ) Distance(km) Time Diff (sec)
1 05/02/2019 04:59:52 -80.19,-114.39 112.88 05/02/2019 04:58:38 -80.17,-114.27 112.88 3.56 74
2 05/02/2019 05:50:36 80.16, 53.27 67.05 05/02/2019 05:49:42 80.18, 53.14 67.11 3.01 54
3 05/02/2019 06:41:21 -80.19,-139.70 112.91 05/02/2019 06:40:39 -80.17,-139.80 112.90 3.13 42
4 05/02/2019 07:32:06 80.19, 27.64 67.08 05/02/2019 07:31:43 80.18, 27.60 67.09 1.10 23
5 05/02/2019 08:22:50 -80.18,-165.02 112.94 05/02/2019 08:22:39 -80.19,-165.02 112.94 0.16 11
6 05/02/2019 09:13:35 80.18, 2.32 67.05 05/02/2019 09:13:43 80.20, 2.39 67.05 2.15 8
7 05/02/2019 10:04:20 -80.21, 169.35 112.92 05/02/2019 10:04:40 -80.18, 169.44 112.96 3.15 20
8 05/02/2019 10:55:05 80.20, -23.31 67.07 05/02/2019 10:55:44 80.19, -23.15 67.03 3.10 39
9 05/02/2019 11:45:49 -80.20, 144.03 112.95 05/02/2019 11:46:41 -80.18, 143.91 112.98 3.38 52
10 05/02/2019 12:36:34 80.20, -48.62 67.04 05/02/2019 12:37:45 80.19, -48.69 67.01 1.57 71




NCC Satellite Simultaneous Nadir Overpasses (SNOs) Prediction Service
